Regional Weather Roundup
Issued by NWS Cleveland, OH

Home | Current Version | Previous Version | Text Only | Print | Product List | Glossary Off
Versions: 1 2 3 4 5 6 7 8 9 10 11 12 13 14 15 16 17 18 19 20 21 22 23 24 25 26 27 28 29 30 31 32 33 34 35 36 37 38 39 40 41 42 43 44 45 46 47 48 49 50

545
ASUS41 KCLE 172012
RWRCLE
OHIO REGIONAL WEATHER ROUNDUP
NATIONAL WEATHER SERVICE WILMINGTON, OH
400 PM EDT THU AUG 17 2017

NOTE: "FAIR" INDICATES FEW OR NO CLOUDS BELOW 12,000 FEET WITH NO
SIGNIFICANT WEATHER AND/OR OBSTRUCTIONS TO VISIBILITY.

OHZ001>008-015>018-024>027-034-035-043-044-172100-
   NORTHWEST OHIO

CITY           SKY/WX    TMP DP  RH WIND       PRES   REMARKS
DEFIANCE       FAIR      84  70  62 SW14G21   29.77F
FINDLAY        PTSUNNY   80  72  76 SW15      29.80F
TOLEDO EXPRESS CLOUDY    79  76  90 S8        29.76F
TOLEDO EXEC    CLOUDY    79  76  90 S12       29.79F
LIMA           PTSUNNY   80  75  84 SW13G22   29.82F
$$

OHZ009>014-019>023-028>033-038-089-172100-
   NORTHEAST OHIO

CITY           SKY/WX    TMP DP  RH WIND       PRES   REMARKS
CLE-HOPKINS    LGT RAIN  85  73  67 S9        29.83F HX  91
CLE-LAKEFRONT  FAIR      87  69  54 S14       29.79F HX  91
CUY CO. ARPT   NOT AVBL
LORAIN-ELYRIA  TSTM      77  70  79 SW6       29.82F
ASHTABULA      FAIR      84  72  67 S12       29.85F
AKRON-CANTON   PTSUNNY   87  72  60 S14       29.87F HX  93
WOOSTER        FAIR      85  73  67 S13G20    29.85F HX  91
MANSFIELD      FAIR      86  73  65 SW20      29.86F HX  93
YOUNGSTOWN     CLOUDY    85  71  63 S10G18    29.88F HX  90
$$

OHZ042-051>053-060>062-070>072-077>081-172100-
  SOUTHWEST OHIO

CITY           SKY/WX    TMP DP  RH WIND       PRES   REMARKS
CINC-COVINGTON TSTM      76  76 100 SW8       29.88F
CINC-LUNKEN    TSTM      75  74  96 S12G23    29.88F FOG
HAMILTON       LGT RAIN  75  74  96 S6        29.87F
DAYTON         PTSUNNY   79  75  87 SW12      29.86F
WRIGHT-PAT AFB PTSUNNY   78  77  98 S6        29.85F
DAYTON GENERAL FAIR      76  74  93 S9        29.87S
WILMINGTON     TSTM      72  72 100 W16G26    29.90R VSB 1/2
$$

OHZ036-037-039>041-045>050-054>059-063>069-073>076-082>088-172100-
  CENTRAL AND SOUTHEAST OHIO

CITY           SKY/WX    TMP DP  RH WIND       PRES   REMARKS
COLUMBUS       CLOUDY    86  72  62 SW10      29.84F HX  92
OSU AIRPORT    LGT RAIN  82  75  79 SW7       29.85F
BOLTON FIELD   MOSUNNY   82  72  69 SW6       29.86F
RICKENBACK AFB FAIR      86  71  60 SW10      29.84S HX  92
NEWARK         FAIR      86  72  62 SW10      29.85F HX  92
MARION         FAIR      82  73  74 SW14      29.84F
LANCASTER      FAIR      87  71  58 SW10      29.86F HX  93
ZANESVILLE     PTSUNNY   88  73  61 SW8       29.87F HX  95
NEW PHILLY     PTSUNNY   83  76  79 SE10      29.87F HX  91
$$




USA.gov is the U.S. government's official web portal to all federal, state and local government web resources and services.